SCP
-0 0 0 -0 -0 -0 0 -0 0 0 0 0 0 0 0 0 0 0 0 0 0 0 0 0 0 0 0 0 0 0 0 0 0 0 0 0 0 0 0 0 0 0 0 0 0 0 0 0 0 0 0 0 0 0
-0 0 0 0 -0 0 -0 0 0 0 0 0 0 0 0 0 0 0 0 0 0 0 0 0 0 0 0 0 0 0 0 0 0 0 0 0 0 0 0 0 0 0 0 0 0 0 0 -0 0 0 0 0 0 0
-0 0 -0 0 0 0 0 0 0 0 0 0 0 0 0 0 0 0 0 0 0 0 0 0 0 0 0 0 0 0 0 0 0 0 0 1 1 0 0 0 0 0 0 0 0 0 0 0 0 0 0 0 0 0
-0 -0 0 0 0 0 0 0 0 0 0 0 0 0 0 0 0 0 0 0 0 0 0 -0 0 0 0 0 0 0 0 0 0 0 1 0 0 0 0 0 0 0 0 0 0 0 0 0 0 0 0 0 0 0
-0 0 0 0 0 0 0 0 0 0 0 0 0 0 0 0 0 0 0 0 0 0 0 -0 0 0 0 0 0 0 0 0 0 1 0 0 0 0 0 0 0 0 0 0 0 0 0 0 0 0 0 0 0 0
-0 0 0 0 0 0 0 0 0 0 0 0 0 0 0 0 0 0 0 0 0 0 0 0 0 -0 0 0 0 -0 -0 0 0 0 0 0 0 0 0 0 0 0 0 0 0 0 0 0 0 0 0 0 0 0
0 0 0 0 0 0 -0 0 0 0 0 0 0 0 0 0 0 0 0 0 0 0 -0 0 0 0 0 0 0 0 0 0 0 0 0 0 0 0 0 0 0 0 0 0 0 0 0 0 0 0 0 0 0 0
0 0 0 0 0 0 0 0 0 0 0 0 0 0 0 0 0 0 0 0 0 0 -0 0 0 0 0 0 0 0 0 0 0 0 0 0 0 0 0 0 0 0 0 0 0 0 0 0 0 0 0 0 0 0
0 0 0 0 0 0 0 0 0 0 0 0 0 0 0 0 0 0 0 -0 0 0 0 -0 0 0 0 0 0 0 0 0 0 0 0 0 0 0 0 0 0 0 0 0 0 0 0 0 0 0 0 0 0 0
0 0 0 0 0 0 0 0 0 0 0 0 0 0 0 0 -0 -0 0 0 0 0 -0 -0 -0 0 0 0 0 0 0 0 0 0 0 0 0 0 0 0 0 0 0 0 0 0 0 0 0 0 0 0 0 0
0 0 0 0 0 0 0 -0 -0 -0 -0 0 0 0 0 0 0 0 0 0 0 -0 -0 -0 -0 0 0 0 0 0 0 0 0 0 0 0 0 0 0 0 0 0 0 0 0 0 0 0 0 0 0 0 0 0
0 0 0 0 0 0 0 0 0 0 -0 0 0 0 0 0 0 0 0 0 0 0 -0 -0 0 0 0 0 0 0 0 0 0 0 0 0 0 0 0 0 0 0 0 0 0 0 0 0 0 0 0 0 0 0
0 0 -0 0 0 0 -0 0 -0 0 0 0 0 0 0 0 0 0 0 0 0 0 0 0 0 0 0 0 0 0 0 0 0 0 0 0 0 0 0 0 0 0 0 0 0 0 0 0 0 0 0 0 0 0
0 0 0 0 0 0 0 0 0 0 0 0 0 -0 0 -0 -0 -0 0 0 0 0 0 0 0 0 0 0 0 0 0 0 0 0 0 0 0 0 0 0 0 0 0 0 0 0 0 0 0 0 0 0 0 0
0 0 0 0 -0 0 0 0 0 -0 -0 -0 0 -0 -0 -0 -0 0 -0 -0 0 0 0 0 0 0 0 0 0 0 0 0 0 0 0 0 0 0 0 0 0 0 0 0 0 0 0 0 0 0 0 0 0 0
0 0 0 -0 -0 -0 -0 -0 0 0 0 -0 -0 0 0 0 0 0 0 0 0 0 0 0 0 0 0 0 0 0 0 0 0 0 0 0 0 0 0 0 0 0 0 0 0 0 0 0 0 0 0 0 0 0
-0 -0 -0 -0 -0 -0 -0 -0 0 0 0 0 0 0 0 0 0 0 0 0 0 0 0 0 0 0 0 0 0 0 0 0 0 0 0 0 0 0 0 0 0 0 0 0 0 0 0 0 0 0 0 0 0 0
-0 -0 -0 -0 -0 -0 -0 0 0 0 0 0 0 0 0 0 0 0 0 0 0 0 0 0 0 0 0 0 0 0 0 0 0 0 0 0 0 0 0 0 0 0 0 0 0 0 0 0 0 0 0 0 0 0
-0 -0 -0 -0 -0 0 0 0 0 0 0 0 0 0 0 0 0 0 -0 -0 -0 -0 -0 -0 -0 -0 0 0 0 0 0 0 0 0 0 0 0 0 0 0 0 0 0 0 0 0 0 0 0 0 0 0 0 0
-0 -0 -0 0 0 0 0 0 0 0 0 0 0 0 -0 -0 -0 -0 -0 -0 -0 -0 -0 0 0 0 0 0 0 0 0 0 0 0 0 0 0 0 0 0 0 0 0 0 0 0 0 0 0 0 0 0 0 0
-0 -0 -0 0 0 0 0 0 -0 -0 -0 -0 0 -0 -0 -0 -0 -0 -0 -0 -0 -0 0 0 0 0 0 0 0 0 0 0 0 0 0 0 0 0 0 0 0 0 0 0 0 0 0 0 0 0 0 0 0 0
0 0 0 0 0 0 -0 -0 0 -0 0 0 0 0 0 -0 -0 -0 -0 -0 0 0 -0 -0 0 0 0 0 0 0 0 0 0 0 0 0 0 0 0 0 0 0 0 0 0 0 0 0 0 0 0 0 0 0
0 0 0 0 0 -0 -0 0 0 0 0 -0 -0 0 0 0 -0 -0 -0 0 0 0 0 0 0 0 0 0 0 0 0 0 0 0 0 0 0 0 0 0 0 0 0 0 0 0 0 0 0 0 0 0 0 0
0 0 0 -0 0 -0 -0 0 0 0 0 0 -0 -0 -0 -0 -0 -0 0 0 0 0 0 0 0 0 0 0 0 0 0 0 0 0 0 0 0 0 0 0 0 0 0 0 0 0 0 0 0 0 0 0 0 0
0 0 0 -0 0 0 0 0 0 -0 -0 -0 -0 -0 -0 -0 0 0 0 0 0 0 0 0 0 0 0 0 0 0 0 0 0 0 0 0 0 0 0 0 0 0 0 0 0 0 0 0 0 0 0 0 0 0
0 0 0 -0 -0 -0 -0 0 0 0 0 0 0 0 0 0 0 0 0 0 0 0 0 0 0 0 0 0 0 0 0 0 0 0 0 0 0 0 0 0 0 0 0 0 0 0 0 0 0 0 0 0 0 0
0 0 0 0 0 0 0 0 0 0 0 0 0 0 0 0 0 0 0 0 0 0 0 0 0 0 0 0 0 0 0 0 0 0 0 0 0 0 0 0 0 0 0 0 0 0 0 0 0 0 0 0 0 0
0 0 0 0 0 0 0 0 0 0 0 0 0 0 0 0 0 0 0 0 0 0 0 0 0 0 0 0 0 0 0 0 0 0 0 0 0 0 0 0 0 0 0 0 0 0 0 0 0 0 0 0 0 0
0 0 0 0 0 0 0 0 0 0 0 0 0 0 0 0 0 0 0 0 0 0 0 0 0 0 0 0 0 0 0 0 0 0 0 0 0 0 0 0 0 0 0 0 0 0 0 0 0 0 0 0 0 0
0 0 0 0 0 0 0 0 0 0 0 0 0 0 0 0 0 0 0 0 0 0 0 0 0 0 0 0 0 0 0 0 0 0 0 0 0 0 0 0 0 0 0 0 0 0 0 0 0 0 0 0 0 0
0 0 0 0 0 0 0 0 0 0 0 0 0 0 0 0 0 0 0 0 0 0 0 0 0 0 0 0 0 0 0 0 0 0 0 0 0 0 0 0 0 0 0 0 0 0 0 0 0 0 0 0 0 0
0 0 0 0 -0 -0 0 0 0 0 0 0 0 0 0 0 0 0 0 0 0 0 0 0 0 0 0 0 0 0 0 0 0 0 0 0 0 0 0 0 0 0 0 0 0 0 0 0 0 0 0 0 0 0
0 0 0 0 -0 -0 0 0 0 0 0 0 0 0 0 0 0 0 0 0 0 0 0 0 0 0 0 0 0 0 0 0 0 0 0 0 0 0 0 0 0 0 0 0 0 0 0 0 0 0 0 0 0 0
Wind_Speed_500mb
48 35 14 14 11 14 33 53 77 89 91 91 98 104 122 125 139 95 67 88 46 23 19 10 20 45 53 64 30 39 35 22 16 18 15 13 10 14 22 20 14 18 19 10 14 12 20 30 24 22 25 6 14 19
29 18 13 19 25 31 71 69 73 81 83 100 91 86 126 123 125 94 66 74 51 17 9 3 16 21 19 71 58 56 34 42 22 16 12 8 4 4 14 20 10 8 14 9 18 13 9 61 37 50 20 19 20 23
23 23 25 28 35 49 60 64 77 71 83 84 82 109 123 123 114 77 63 57 47 17 5 15 9 26 35 42 50 37 49 33 50 32 10 9 9 11 9 19 20 13 10 8 4 18 24 33 43 21 30 27 20 22
29 32 34 36 45 49 56 64 74 69 77 69 101 110 114 115 89 84 55 54 47 19 8 13 16 18 33 37 37 47 21 39 18 39 17 8 7 17 13 16 14 15 17 14 14 24 10 28 40 43 31 29 29 26
48 40 43 45 47 51 58 60 68 72 68 93 102 102 109 108 81 67 59 57 47 20 2 18 17 30 24 31 32 43 48 28 38 11 7 10 12 6 2 4 9 17 16 13 13 27 25 38 25 39 42 48 40 41
59 67 42 45 55 62 65 63 89 91 100 93 85 104 96 95 85 70 16 40 41 20 5 4 7 25 26 34 33 47 54 50 30 21 13 12 8 12 12 25 27 47 36 39 18 22 24 22 28 20 38 36 38 41
52 57 65 71 70 82 86 81 80 82 103 108 105 91 87 81 76 30 13 20 60 35 9 6 5 10 35 29 39 41 60 59 48 39 17 28 13 11 6 18 16 41 48 43 47 35 21 37 26 29 30 36 42 38
50 54 58 67 70 73 81 83 90 90 86 74 70 67 56 55 55 14 7 34 58 33 19 6 6 9 28 15 9 34 33 40 39 21 8 16 8 7 11 18 38 40 25 30 37 38 33 21 24 20 33 40 40 45
46 52 58 61 65 70 67 68 75 81 81 76 70 66 55 27 18 16 23 42 62 19 11 9 6 1 6 6 9 13 24 9 11 11 13 15 11 17 4 12 10 11 14 17 34 31 33 21 20 23 20 27 41 40
42 51 57 65 70 70 73 75 76 74 74 74 69 22 10 18 29 33 24 22 16 8 9 5 13 3 13 9 5 8 3 6 8 8 19 9 14 5 8 14 17 13 14 17 13 11 15 22 31 29 33 27 27 39
45 51 57 60 64 68 70 71 73 75 76 44 12 9 19 36 24 4 9 9 11 6 15 9 18 7 12 3 5 4 6 3 7 8 14 10 9 10 22 15 9 3 5 8 11 14 16 18 30 34 33 36 36 41
56 50 51 54 57 61 67 70 71 53 36 7 22 39 35 11 7 6 7 5 7 4 11 8 10 30 14 8 5 3 2 2 3 9 7 7 6 29 21 13 10 5 2 2 4 6 10 16 23 34 38 47 50 50
55 56 53 61 63 58 57 56 47 11 27 28 18 9 6 2 7 8 12 7 5 1 7 12 7 11 6 3 7 3 5 2 3 5 6 8 30 36 25 15 9 5 6 10 15 15 18 25 29 35 41 39 45 49
51 55 59 64 65 50 31 33 28 21 6 9 5 7 6 5 9 6 9 2 5 6 2 13 8 4 6 4 4 2 3 4 6 7 8 14 47 36 22 10 11 19 19 23 25 28 31 34 38 38 43 47 57 62
44 47 55 60 24 21 41 31 11 8 15 15 13 8 10 10 15 19 25 21 17 9 3 11 10 11 9 8 7 4 7 10 12 9 12 44 39 26 20 20 24 28 33 39 40 45 45 47 51 54 51 53 55 55
39 39 34 29 20 10 7 3 32 19 11 10 18 12 27 10 15 24 25 17 23 8 11 13 7 7 11 6 9 13 7 10 8 11 36 37 28 27 29 32 38 40 45 49 50 51 53 56 58 58 52 47 41 36
31 24 29 22 15 14 13 16 18 15 13 11 11 41 27 9 17 25 28 28 19 2 6 7 12 14 6 9 8 10 8 8 23 26 36 39 35 38 39 44 48 52 56 56 54 52 54 52 49 45 47 40 35 31
22 32 32 22 27 29 30 22 12 16 16 20 9 27 26 28 33 31 38 50 17 12 11 10 11 15 11 8 7 8 9 15 20 26 38 45 46 49 52 54 55 57 57 54 53 50 45 41 43 44 38 30 27 24
39 35 27 24 24 18 11 14 15 13 23 11 27 19 19 40 51 47 48 37 46 35 18 15 15 10 9 12 13 14 13 16 20 28 41 48 50 50 52 51 51 52 52 50 48 48 46 44 41 35 29 23 25 21
47 41 28 39 29 13 12 12 12 15 8 9 14 38 50 40 44 61 67 61 46 23 23 12 10 20 14 17 16 13 13 16 19 31 40 46 48 50 52 51 52 51 52 49 49 46 43 42 38 32 26 23 19 16
46 36 31 42 38 23 15 10 12 13 14 10 8 23 22 46 69 64 66 53 45 21 17 27 29 26 27 30 30 33 38 36 38 35 32 39 45 49 51 50 48 49 49 45 44 41 38 37 30 24 20 17 14 11
58 46 31 21 13 13 16 18 14 12 10 12 11 13 14 17 27 39 39 39 24 42 23 26 26 26 34 39 39 42 43 47 50 50 47 45 46 46 45 42 41 44 42 40 36 34 33 29 25 21 18 17 16 16
22 12 11 11 13 13 8 11 9 11 6 6 7 9 11 12 15 19 16 21 19 28 25 27 31 34 37 38 43 45 42 42 44 45 45 45 44 43 41 39 37 37 36 35 30 29 28 25 23 22 22 21 21 22
11 11 12 12 16 9 9 12 10 8 10 7 7 8 8 10 11 15 9 10 17 19 21 21 19 23 28 34 37 36 34 34 38 39 34 33 37 37 37 36 34 33 31 26 25 25 25 25 26 25 26 26 26 26
11 20 13 14 13 10 9 7 8 8 8 9 7 8 6 7 6 7 5 6 12 17 19 20 23 24 27 26 28 31 29 27 28 31 31 29 27 24 24 23 22 22 21 20 23 24 25 25 25 25 24 25 26 26
15 20 12 9 7 8 6 7 7 7 6 7 9 6 6 6 7 8 6 7 7 9 12 14 15 17 20 18 17 19 22 22 21 25 25 23 21 19 17 16 15 21 22 23 23 22 22 23 23 23 21 22 25 26
11 12 15 16 10 14 12 15 13 11 9 7 5 4 5 8 6 7 10 8 9 14 15 15 15 16 19 23 23 21 18 17 17 17 17 18 18 20 18 17 17 18 21 23 22 21 21 22 23 23 23 23 25 27
13 14 10 14 19 20 9 7 7 7 6 7 5 8 5 5 5 8 9 22 20 18 16 17 18 18 18 17 15 13 12 13 15 16 18 20 19 20 19 18 19 20 21 22 22 22 22 23 23 24 25 25 27 27
15 9 13 15 15 18 19 11 8 8 6 6 6 5 6 7 11 17 22 21 16 12 10 11 14 15 15 13 11 9 10 13 12 12 12 11 10 16 18 18 19 20 20 19 20 21 22 23 23 23 25 26 27 27
11 13 13 13 11 12 15 12 10 13 15 16 15 17 18 14 21 24 21 15 10 8 8 10 11 11 8 5 4 7 12 15 16 14 12 12 14 15 16 18 21 21 20 19 19 19 20 21 22 23 23 24 25 25
12 12 15 17 13 14 26 37 33 30 25 21 24 21 18 13 18 20 18 13 9 7 8 8 7 4 1 3 8 11 13 15 15 15 15 14 14 16 18 21 23 22 20 20 20 21 22 22 23 23 24 25 27 28
14 13 13 9 9 17 9 7 9 9 7 8 8 10 11 7 9 16 16 11 9 8 7 5 2 3 7 8 10 11 12 13 15 15 16 17 17 19 21 23 23 21 20 20 21 21 21 22 23 24 25 26 28 29
28 30 23 15 11 9 6 7 5 6 7 5 4 6 4 6 5 15 19 17 13 11 7 3 4 4 6 8 10 12 13 15 16 17 18 20 22 23 24 24 23 22 22 21 22 22 23 24 25 27 28 29 30 30
Wind_Direction_500mb
335 340 56 90 143 189 181 159 167 171 179 179 183 187 188 186 181 176 182 190 185 196 165 168 190 211 192 203 185 176 184 204 185 189 207 195 198 214 217 217 177 182 176 178 208 222 239 153 147 203 231 220 214 210
360 37 81 99 102 102 145 148 158 166 169 175 181 182 180 183 175 179 172 181 191 177 124 98 219 236 210 194 185 176 188 176 186 189 204 205 159 172 210 218 184 214 224 203 210 215 199 182 218 221 211 214 206 204
63 88 97 102 119 120 137 146 154 164 166 170 177 179 179 177 173 168 163 173 178 178 293 305 192 252 226 205 199 186 202 192 198 195 163 210 201 164 192 224 220 215 174 220 194 235 231 222 222 214 214 208 203 205
76 94 98 109 119 126 136 143 150 156 159 169 171 174 175 172 171 173 161 163 170 168 211 265 224 262 227 229 217 212 223 212 207 204 219 206 194 206 218 241 215 228 157 208 237 260 268 249 233 224 214 214 218 196
87 104 107 113 117 124 131 138 147 158 161 161 167 169 166 163 154 154 161 168 175 167 177 227 243 240 255 232 233 219 217 205 210 184 185 216 231 225 244 260 228 189 198 203 228 235 224 263 268 223 216 220 212 192
81 102 113 101 118 123 129 136 146 155 159 158 155 163 165 165 164 163 142 183 188 182 224 312 291 252 263 236 224 219 215 220 219 225 228 239 180 211 217 234 232 221 219 224 245 261 237 257 276 240 218 214 207 201
79 85 97 114 111 124 135 136 140 140 141 145 151 151 160 171 178 156 151 168 199 188 167 273 250 230 220 213 218 206 208 210 217 227 235 224 203 211 251 252 239 233 235 237 240 240 247 255 261 243 212 208 203 190
87 94 100 111 114 121 126 134 140 147 151 149 153 146 142 148 154 177 192 190 173 165 174 237 246 252 194 174 137 185 188 191 204 210 233 230 187 219 245 252 248 249 255 238 241 231 237 263 244 222 203 200 190 183
96 102 104 108 115 120 123 127 132 131 124 123 126 133 140 149 172 140 113 149 170 175 193 192 232 211 179 123 143 140 174 179 160 196 208 190 196 223 236 249 288 273 243 259 226 225 226 221 229 219 189 182 178 177
107 109 114 118 118 120 123 125 127 129 132 133 134 118 130 161 182 114 119 166 205 248 238 236 154 291 338 189 125 122 81 153 166 202 159 215 228 107 3 314 296 278 260 249 213 235 215 192 193 200 182 174 177 162
115 121 120 119 119 121 124 129 133 136 139 135 134 118 144 140 156 187 139 182 173 212 207 224 185 188 282 262 125 207 143 86 195 178 190 188 212 2 344 341 349 298 221 237 241 263 238 233 189 175 166 158 164 160
107 117 126 126 127 127 129 133 137 140 147 160 119 126 129 174 184 180 195 176 215 245 160 138 202 203 219 223 131 76 124 198 204 131 164 138 35 352 353 359 13 15 62 122 132 143 149 160 167 173 163 166 168 171
100 119 123 132 128 128 135 146 156 98 125 117 113 108 190 162 205 212 198 180 201 107 153 164 162 154 159 57 73 97 204 176 284 48 70 43 341 347 353 357 15 69 114 117 116 124 139 146 155 170 159 157 151 151
99 117 125 128 127 118 127 141 171 145 62 80 56 85 360 36 10 345 313 6 343 273 206 139 104 112 120 92 61 191 47 11 64 52 47 354 343 345 0 36 84 88 100 107 111 119 127 132 131 135 133 136 141 138
118 118 135 140 110 107 89 98 125 184 46 40 1 37 51 29 10 335 332 338 342 311 215 110 74 54 39 70 20 23 61 64 38 24 350 329 347 7 33 63 86 96 101 103 109 107 111 120 121 119 125 129 130 131
138 130 134 153 186 202 219 14 41 66 55 58 38 358 354 14 349 355 345 315 352 25 81 55 77 79 52 41 53 19 61 47 10 335 330 347 26 48 62 75 85 94 96 98 101 109 114 112 111 112 116 116 120 125
160 150 144 150 117 76 44 45 52 48 43 39 46 24 11 346 325 324 328 321 348 41 60 62 52 47 47 58 52 21 42 7 339 357 13 41 59 66 75 82 85 89 90 94 100 102 104 109 112 110 105 107 109 109
130 152 155 142 119 95 66 52 71 59 59 25 20 13 26 17 5 11 8 15 42 64 54 63 71 40 41 50 53 23 0 351 44 40 48 63 78 86 89 91 93 95 96 97 96 97 100 101 97 95 99 100 101 98
142 144 160 171 143 99 73 45 52 80 41 49 31 25 30 27 28 29 31 42 61 70 82 65 53 38 47 29 3 6 15 36 67 58 61 70 78 80 84 88 91 93 92 89 91 91 93 94 92 94 94 92 91 90
161 165 164 130 114 87 80 61 66 80 63 69 55 54 50 42 33 38 41 42 55 59 50 52 48 38 44 29 29 34 51 85 83 74 64 64 70 80 81 82 84 87 88 89 90 90 88 87 86 85 86 87 84 76
134 128 131 108 78 73 84 79 79 112 128 87 82 52 60 43 39 36 37 43 52 47 65 65 67 60 63 61 60 65 75 91 80 81 80 75 76 79 81 83 86 84 81 78 77 78 77 74 71 67 60 57 48 31
109 101 93 73 77 75 65 46 92 108 87 102 62 52 44 27 26 29 40 48 58 42 54 61 65 71 67 64 66 73 79 86 88 90 89 89 78 76 74 71 73 73 72 68 67 65 63 58 52 43 34 28 15 1
103 90 71 60 86 73 65 45 68 35 66 67 57 50 43 42 32 29 63 42 50 29 52 66 74 78 78 78 82 82 82 83 80 78 78 79 79 78 76 75 74 71 67 62 57 54 49 41 32 22 15 9 4 357
99 61 44 53 57 79 72 42 48 55 57 42 57 65 48 47 47 66 63 49 25 39 54 62 74 76 76 78 71 72 68 73 80 81 75 73 72 68 65 63 59 55 52 42 32 26 18 11 7 2 1 1 360 359
73 19 36 47 42 76 65 50 29 56 66 42 77 70 61 49 69 72 78 84 46 53 61 71 78 79 80 79 76 77 78 75 76 80 75 70 66 61 55 48 42 35 27 20 17 16 13 10 8 5 3 1 358 356
72 22 41 42 40 69 56 80 56 63 71 71 64 75 64 74 76 85 92 120 88 68 78 79 85 92 89 89 91 87 82 79 77 82 78 67 59 50 41 32 24 11 19 22 18 13 9 7 4 360 357 352 350 350
68 50 49 41 74 87 89 71 68 63 64 62 67 69 73 76 93 102 129 112 120 109 106 113 104 108 110 110 107 98 88 84 81 69 54 37 24 21 22 23 20 12 11 11 10 8 5 4 2 0 358 356 354 353
69 50 63 21 65 48 84 63 50 54 62 40 74 47 70 66 106 132 132 140 125 109 106 112 117 118 119 117 106 90 70 51 36 19 4 2 4 9 13 14 12 10 7 4 360 358 358 358 358 356 354 355 355 353
58 70 76 46 59 53 41 37 61 53 24 35 88 91 97 91 125 123 138 140 126 110 110 113 117 115 110 101 86 62 37 22 9 354 358 1 4 353 359 4 4 358 354 353 351 353 353 352 352 353 353 354 353 352
48 43 87 55 51 46 27 39 74 81 79 91 100 108 100 106 135 142 149 151 143 139 134 132 134 127 118 96 27 354 346 350 355 358 358 352 349 349 353 353 352 351 353 356 355 353 353 353 352 352 350 349 348 347
78 67 71 61 74 74 99 87 79 77 78 76 97 102 115 128 146 156 162 165 165 158 146 142 141 134 85 350 337 338 336 343 349 351 352 349 347 346 344 344 346 346 346 347 348 349 349 349 348 347 345 343 341 341
49 63 105 101 120 157 57 63 64 71 59 57 61 99 116 122 163 187 192 189 185 178 168 162 191 278 305 316 326 332 334 338 342 343 345 344 340 338 337 337 337 335 334 336 337 336 336 336 337 337 337 337 337 337
81 82 88 99 120 169 169 113 84 93 78 88 107 143 162 165 162 198 192 191 186 179 180 227 268 286 309 318 323 326 331 335 335 334 339 341 340 336 335 334 332 328 326 325 323 324 326 327 328 329 329 329 330 331
Wind_Speed_850mb
48 35 14 14 11 14 33 53 77 89 91 91 98 104 122 125 139 95 67 88 46 23 19 10 20 45 53 64 30 39 35 22 16 18 15 13 10 14 22 20 14 18 19 10 14 12 20 30 24 22 25 6 14 19
29 18 13 19 25 31 71 69 73 81 83 100 91 86 126 123 125 94 66 74 51 17 9 3 16 21 19 71 58 56 34 42 22 16 12 8 4 4 14 20 10 8 14 9 18 13 9 61 37 50 20 19 20 23
23 23 25 28 35 49 60 64 77 71 83 84 82 109 123 123 114 77 63 57 47 17 5 15 9 26 35 42 50 37 49 33 50 32 10 9 9 11 9 19 20 13 10 8 4 18 24 33 43 21 30 27 20 22
29 32 34 36 45 49 56 64 74 69 77 69 101 110 114 115 89 84 55 54 47 19 8 13 16 18 33 37 37 47 21 39 18 39 17 8 7 17 13 16 14 15 17 14 14 24 10 28 40 43 31 29 29 26
48 40 43 45 47 51 58 60 68 72 68 93 102 102 109 108 81 67 59 57 47 20 2 18 17 30 24 31 32 43 48 28 38 11 7 10 12 6 2 4 9 17 16 13 13 27 25 38 25 39 42 48 40 41
59 67 42 45 55 62 65 63 89 91 100 93 85 104 96 95 85 70 16 40 41 20 5 4 7 25 26 34 33 47 54 50 30 21 13 12 8 12 12 25 27 47 36 39 18 22 24 22 28 20 38 36 38 41
52 57 65 71 70 82 86 81 80 82 103 108 105 91 87 81 76 30 13 20 60 35 9 6 5 10 35 29 39 41 60 59 48 39 17 28 13 11 6 18 16 41 48 43 47 35 21 37 26 29 30 36 42 38
50 54 58 67 70 73 81 83 90 90 86 74 70 67 56 55 55 14 7 34 58 33 19 6 6 9 28 15 9 34 33 40 39 21 8 16 8 7 11 18 38 40 25 30 37 38 33 21 24 20 33 40 40 45
46 52 58 61 65 70 67 68 75 81 81 76 70 66 55 27 18 16 23 42 62 19 11 9 6 1 6 6 9 13 24 9 11 11 13 15 11 17 4 12 10 11 14 17 34 31 33 21 20 23 20 27 41 40
42 51 57 65 70 70 73 75 76 74 74 74 69 22 10 18 29 33 24 22 16 8 9 5 13 3 13 9 5 8 3 6 8 8 19 9 14 5 8 14 17 13 14 17 13 11 15 22 31 29 33 27 27 39
45 51 57 60 64 68 70 71 73 75 76 44 12 9 19 36 24 4 9 9 11 6 15 9 18 7 12 3 5 4 6 3 7 8 14 10 9 10 22 15 9 3 5 8 11 14 16 18 30 34 33 36 36 41
56 50 51 54 57 61 67 70 71 53 36 7 22 39 35 11 7 6 7 5 7 4 11 8 10 30 14 8 5 3 2 2 3 9 7 7 6 29 21 13 10 5 2 2 4 6 10 16 23 34 38 47 50 50
55 56 53 61 63 58 57 56 47 11 27 28 18 9 6 2 7 8 12 7 5 1 7 12 7 11 6 3 7 3 5 2 3 5 6 8 30 36 25 15 9 5 6 10 15 15 18 25 29 35 41 39 45 49
51 55 59 64 65 50 31 33 28 21 6 9 5 7 6 5 9 6 9 2 5 6 2 13 8 4 6 4 4 2 3 4 6 7 8 14 47 36 22 10 11 19 19 23 25 28 31 34 38 38 43 47 57 62
44 47 55 60 24 21 41 31 11 8 15 15 13 8 10 10 15 19 25 21 17 9 3 11 10 11 9 8 7 4 7 10 12 9 12 44 39 26 20 20 24 28 33 39 40 45 45 47 51 54 51 53 55 55
39 39 34 29 20 10 7 3 32 19 11 10 18 12 27 10 15 24 25 17 23 8 11 13 7 7 11 6 9 13 7 10 8 11 36 37 28 27 29 32 38 40 45 49 50 51 53 56 58 58 52 47 41 36
31 24 29 22 15 14 13 16 18 15 13 11 11 41 27 9 17 25 28 28 19 2 6 7 12 14 6 9 8 10 8 8 23 26 36 39 35 38 39 44 48 52 56 56 54 52 54 52 49 45 47 40 35 31
22 32 32 22 27 29 30 22 12 16 16 20 9 27 26 28 33 31 38 50 17 12 11 10 11 15 11 8 7 8 9 15 20 26 38 45 46 49 52 54 55 57 57 54 53 50 45 41 43 44 38 30 27 24
39 35 27 24 24 18 11 14 15 13 23 11 27 19 19 40 51 47 48 37 46 35 18 15 15 10 9 12 13 14 13 16 20 28 41 48 50 50 52 51 51 52 52 50 48 48 46 44 41 35 29 23 25 21
47 41 28 39 29 13 12 12 12 15 8 9 14 38 50 40 44 61 67 61 46 23 23 12 10 20 14 17 16 13 13 16 19 31 40 46 48 50 52 51 52 51 52 49 49 46 43 42 38 32 26 23 19 16
46 36 31 42 38 23 15 10 12 13 14 10 8 23 22 46 69 64 66 53 45 21 17 27 29 26 27 30 30 33 38 36 38 35 32 39 45 49 51 50 48 49 49 45 44 41 38 37 30 24 20 17 14 11
58 46 31 21 13 13 16 18 14 12 10 12 11 13 14 17 27 39 39 39 24 42 23 26 26 26 34 39 39 42 43 47 50 50 47 45 46 46 45 42 41 44 42 40 36 34 33 29 25 21 18 17 16 16
22 12 11 11 13 13 8 11 9 11 6 6 7 9 11 12 15 19 16 21 19 28 25 27 31 34 37 38 43 45 42 42 44 45 45 45 44 43 41 39 37 37 36 35 30 29 28 25 23 22 22 21 21 22
11 11 12 12 16 9 9 12 10 8 10 7 7 8 8 10 11 15 9 10 17 19 21 21 19 23 28 34 37 36 34 34 38 39 34 33 37 37 37 36 34 33 31 26 25 25 25 25 26 25 26 26 26 26
11 20 13 14 13 10 9 7 8 8 8 9 7 8 6 7 6 7 5 6 12 17 19 20 23 24 27 26 28 31 29 27 28 31 31 29 27 24 24 23 22 22 21 20 23 24 25 25 25 25 24 25 26 26
15 20 12 9 7 8 6 7 7 7 6 7 9 6 6 6 7 8 6 7 7 9 12 14 15 17 20 18 17 19 22 22 21 25 25 23 21 19 17 16 15 21 22 23 23 22 22 23 23 23 21 22 25 26
11 12 15 16 10 14 12 15 13 11 9 7 5 4 5 8 6 7 10 8 9 14 15 15 15 16 19 23 23 21 18 17 17 17 17 18 18 20 18 17 17 18 21 23 22 21 21 22 23 23 23 23 25 27
13 14 10 14 19 20 9 7 7 7 6 7 5 8 5 5 5 8 9 22 20 18 16 17 18 18 18 17 15 13 12 13 15 16 18 20 19 20 19 18 19 20 21 22 22 22 22 23 23 24 25 25 27 27
15 9 13 15 15 18 19 11 8 8 6 6 6 5 6 7 11 17 22 21 16 12 10 11 14 15 15 13 11 9 10 13 12 12 12 11 10 16 18 18 19 20 20 19 20 21 22 23 23 23 25 26 27 27
11 13 13 13 11 12 15 12 10 13 15 16 15 17 18 14 21 24 21 15 10 8 8 10 11 11 8 5 4 7 12 15 16 14 12 12 14 15 16 18 21 21 20 19 19 19 20 21 22 23 23 24 25 25
12 12 15 17 13 14 26 37 33 30 25 21 24 21 18 13 18 20 18 13 9 7 8 8 7 4 1 3 8 11 13 15 15 15 15 14 14 16 18 21 23 22 20 20 20 21 22 22 23 23 24 25 27 28
14 13 13 9 9 17 9 7 9 9 7 8 8 10 11 7 9 16 16 11 9 8 7 5 2 3 7 8 10 11 12 13 15 15 16 17 17 19 21 23 23 21 20 20 21 21 21 22 23 24 25 26 28 29
28 30 23 15 11 9 6 7 5 6 7 5 4 6 4 6 5 15 19 17 13 11 7 3 4 4 6 8 10 12 13 15 16 17 18 20 22 23 24 24 23 22 22 21 22 22 23 24 25 27 28 29 30 30
Wind_Direction_850mb
335 340 56 90 143 189 181 159 167 171 179 179 183 187 188 186 181 176 182 190 185 196 165 168 190 211 192 203 185 176 184 204 185 189 207 195 198 214 217 217 177 182 176 178 208 222 239 153 147 203 231 220 214 210
360 37 81 99 102 102 145 148 158 166 169 175 181 182 180 183 175 179 172 181 191 177 124 98 219 236 210 194 185 176 188 176 186 189 204 205 159 172 210 218 184 214 224 203 210 215 199 182 218 221 211 214 206 204
63 88 97 102 119 120 137 146 154 164 166 170 177 179 179 177 173 168 163 173 178 178 293 305 192 252 226 205 199 186 202 192 198 195 163 210 201 164 192 224 220 215 174 220 194 235 231 222 222 214 214 208 203 205
76 94 98 109 119 126 136 143 150 156 159 169 171 174 175 172 171 173 161 163 170 168 211 265 224 262 227 229 217 212 223 212 207 204 219 206 194 206 218 241 215 228 157 208 237 260 268 249 233 224 214 214 218 196
87 104 107 113 117 124 131 138 147 158 161 161 167 169 166 163 154 154 161 168 175 167 177 227 243 240 255 232 233 219 217 205 210 184 185 216 231 225 244 260 228 189 198 203 228 235 224 263 268 223 216 220 212 192
81 102 113 101 118 123 129 136 146 155 159 158 155 163 165 165 164 163 142 183 188 182 224 312 291 252 263 236 224 219 215 220 219 225 228 239 180 211 217 234 232 221 219 224 245 261 237 257 276 240 218 214 207 201
79 85 97 114 111 124 135 136 140 140 141 145 151 151 160 171 178 156 151 168 199 188 167 273 250 230 220 213 218 206 208 210 217 227 235 224 203 211 251 252 239 233 235 237 240 240 247 255 261 243 212 208 203 190
87 94 100 111 114 121 126 134 140 147 151 149 153 146 142 148 154 177 192 190 173 165 174 237 246 252 194 174 137 185 188 191 204 210 233 230 187 219 245 252 248 249 255 238 241 231 237 263 244 222 203 200 190 183
96 102 104 108 115 120 123 127 132 131 124 123 126 133 140 149 172 140 113 149 170 175 193 192 232 211 179 123 143 140 174 179 160 196 208 190 196 223 236 249 288 273 243 259 226 225 226 221 229 219 189 182 178 177
107 109 114 118 118 120 123 125 127 129 132 133 134 118 130 161 182 114 119 166 205 248 238 236 154 291 338 189 125 122 81 153 166 202 159 215 228 107 3 314 296 278 260 249 213 235 215 192 193 200 182 174 177 162
115 121 120 119 119 121 124 129 133 136 139 135 134 118 144 140 156 187 139 182 173 212 207 224 185 188 282 262 125 207 143 86 195 178 190 188 212 2 344 341 349 298 221 237 241 263 238 233 189 175 166 158 164 160
107 117 126 126 127 127 129 133 137 140 147 160 119 126 129 174 184 180 195 176 215 245 160 138 202 203 219 223 131 76 124 198 204 131 164 138 35 352 353 359 13 15 62 122 132 143 149 160 167 173 163 166 168 171
100 119 123 132 128 128 135 146 156 98 125 117 113 108 190 162 205 212 198 180 201 107 153 164 162 154 159 57 73 97 204 176 284 48 70 43 341 347 353 357 15 69 114 117 116 124 139 146 155 170 159 157 151 151
99 117 125 128 127 118 127 141 171 145 62 80 56 85 360 36 10 345 313 6 343 273 206 139 104 112 120 92 61 191 47 11 64 52 47 354 343 345 0 36 84 88 100 107 111 119 127 132 131 135 133 136 141 138
118 118 135 140 110 107 89 98 125 184 46 40 1 37 51 29 10 335 332 338 342 311 215 110 74 54 39 70 20 23 61 64 38 24 350 329 347 7 33 63 86 96 101 103 109 107 111 120 121 119 125 129 130 131
138 130 134 153 186 202 219 14 41 66 55 58 38 358 354 14 349 355 345 315 352 25 81 55 77 79 52 41 53 19 61 47 10 335 330 347 26 48 62 75 85 94 96 98 101 109 114 112 111 112 116 116 120 125
160 150 144 150 117 76 44 45 52 48 43 39 46 24 11 346 325 324 328 321 348 41 60 62 52 47 47 58 52 21 42 7 339 357 13 41 59 66 75 82 85 89 90 94 100 102 104 109 112 110 105 107 109 109
130 152 155 142 119 95 66 52 71 59 59 25 20 13 26 17 5 11 8 15 42 64 54 63 71 40 41 50 53 23 0 351 44 40 48 63 78 86 89 91 93 95 96 97 96 97 100 101 97 95 99 100 101 98
142 144 160 171 143 99 73 45 52 80 41 49 31 25 30 27 28 29 31 42 61 70 82 65 53 38 47 29 3 6 15 36 67 58 61 70 78 80 84 88 91 93 92 89 91 91 93 94 92 94 94 92 91 90
161 165 164 130 114 87 80 61 66 80 63 69 55 54 50 42 33 38 41 42 55 59 50 52 48 38 44 29 29 34 51 85 83 74 64 64 70 80 81 82 84 87 88 89 90 90 88 87 86 85 86 87 84 76
134 128 131 108 78 73 84 79 79 112 128 87 82 52 60 43 39 36 37 43 52 47 65 65 67 60 63 61 60 65 75 91 80 81 80 75 76 79 81 83 86 84 81 78 77 78 77 74 71 67 60 57 48 31
109 101 93 73 77 75 65 46 92 108 87 102 62 52 44 27 26 29 40 48 58 42 54 61 65 71 67 64 66 73 79 86 88 90 89 89 78 76 74 71 73 73 72 68 67 65 63 58 52 43 34 28 15 1
103 90 71 60 86 73 65 45 68 35 66 67 57 50 43 42 32 29 63 42 50 29 52 66 74 78 78 78 82 82 82 83 80 78 78 79 79 78 76 75 74 71 67 62 57 54 49 41 32 22 15 9 4 357
99 61 44 53 57 79 72 42 48 55 57 42 57 65 48 47 47 66 63 49 25 39 54 62 74 76 76 78 71 72 68 73 80 81 75 73 72 68 65 63 59 55 52 42 32 26 18 11 7 2 1 1 360 359
73 19 36 47 42 76 65 50 29 56 66 42 77 70 61 49 69 72 78 84 46 53 61 71 78 79 80 79 76 77 78 75 76 80 75 70 66 61 55 48 42 35 27 20 17 16 13 10 8 5 3 1 358 356
72 22 41 42 40 69 56 80 56 63 71 71 64 75 64 74 76 85 92 120 88 68 78 79 85 92 89 89 91 87 82 79 77 82 78 67 59 50 41 32 24 11 19 22 18 13 9 7 4 360 357 352 350 350
68 50 49 41 74 87 89 71 68 63 64 62 67 69 73 76 93 102 129 112 120 109 106 113 104 108 110 110 107 98 88 84 81 69 54 37 24 21 22 23 20 12 11 11 10 8 5 4 2 0 358 356 354 353
69 50 63 21 65 48 84 63 50 54 62 40 74 47 70 66 106 132 132 140 125 109 106 112 117 118 119 117 106 90 70 51 36 19 4 2 4 9 13 14 12 10 7 4 360 358 358 358 358 356 354 355 355 353
58 70 76 46 59 53 41 37 61 53 24 35 88 91 97 91 125 123 138 140 126 110 110 113 117 115 110 101 86 62 37 22 9 354 358 1 4 353 359 4 4 358 354 353 351 353 353 352 352 353 353 354 353 352
48 43 87 55 51 46 27 39 74 81 79 91 100 108 100 106 135 142 149 151 143 139 134 132 134 127 118 96 27 354 346 350 355 358 358 352 349 349 353 353 352 351 353 356 355 353 353 353 352 352 350 349 348 347
78 67 71 61 74 74 99 87 79 77 78 76 97 102 115 128 146 156 162 165 165 158 146 142 141 134 85 350 337 338 336 343 349 351 352 349 347 346 344 344 346 346 346 347 348 349 349 349 348 347 345 343 341 341
49 63 105 101 120 157 57 63 64 71 59 57 61 99 116 122 163 187 192 189 185 178 168 162 191 278 305 316 326 332 334 338 342 343 345 344 340 338 337 337 337 335 334 336 337 336 336 336 337 337 337 337 337 337
81 82 88 99 120 169 169 113 84 93 78 88 107 143 162 165 162 198 192 191 186 179 180 227 268 286 309 318 323 326 331 335 335 334 339 341 340 336 335 334 332 328 326 325 323 324 326 327 328 329 329 329 330 331